Regional Weather Roundup
Issued by NWS

Home | Current Version | Previous Version | Graphics & Text | Print | Product List | Glossary On
Versions: 1 2 3 4 5 6 7 8 9 10 11 12 13 14 15 16 17 18 19 20 21 22 23 24 25 26 27 28 29 30 31 32 33 34 35 36 37 38 39 40 41 42 43 44 45 46 47 48 49 50
000
ASUS43 KDTX 160001
RWRMI
MICHIGAN HOURLY REGIONAL WEATHER ROUNDUP
NATIONAL WEATHER SERVICE DETROIT/PONTIAC MI
800 PM EDT SUN OCT 15 2017

NOTE: "FAIR" INDICATES FEW OR NO CLOUDS BELOW 12,000 FEET WITH NO
SIGNIFICANT WEATHER AND/OR OBSTRUCTION TO VISIBILITY.

MIZ047>049-052>055-059>063-066>070-074>076-081>083-160100-
SOUTHEAST LOWER MICHIGAN

CITY           SKY/WX    TMP DP  RH WIND       PRES   REMARKS
ADRIAN         PTCLDY    52  41  66 N10G20    30.06R
6HR MIN TEMP:  52; 6HR MAX TEMP:  62; 6HR PCP: TRACE;

ALMA           CLOUDY    49  40  70 NW7       30.10R
ANN ARBOR      PTCLDY    51  41  68 NW14G23   30.03R
BAD AXE        CLOUDY    48  38  67 NW18G25   30.03R
6HR MIN TEMP:  48; 6HR MAX TEMP:  62;

CARO           CLOUDY    49  39  69 N10G16    30.04R
DETROIT CITY   CLOUDY    54  40  59 NW14G24   30.01R
6HR MIN TEMP:  54; 6HR MAX TEMP:  64; 6HR PCP: TRACE;

DETROIT        MOCLDY    53  40  61 NW14      30.03R
6HR MIN TEMP:  53; 6HR MAX TEMP:  64; 6HR PCP: TRACE;

FLINT          MOCLDY    50  40  68 N9        30.06R
6HR MIN TEMP:  50; 6HR MAX TEMP:  60; 6HR PCP:  0.01;

GROSSE ILE     CLOUDY    55  41  60 NW17G23   30.01R
6HR MIN TEMP:  55; 6HR MAX TEMP:  65;

HILLSDALE      MOCLDY    48  41  76 NW10G16   30.07R
HOWELL         MOCLDY    49  41  73 NW13G18   30.06R
6HR MIN TEMP:  49; 6HR MAX TEMP:  60;


CITY           SKY/WX    TMP DP  RH WIND       PRES   REMARKS
JACKSON        MOCLDY    51  40  65 NW10      30.07R
6HR MIN TEMP:  51; 6HR MAX TEMP:  58; 6HR PCP:  0.03;

LAMBERTVILLE   MOCLDY    55  43  64 NW6       30.04R
6HR MIN TEMP:  55; 6HR MAX TEMP:  65;

LANSING        MOCLDY    50  39  66 NW7       30.09R
6HR MIN TEMP:  50; 6HR MAX TEMP:  57; 6HR PCP:  0.02;

LAPEER         CLOUDY    49  39  68 N15       30.04R
6HR MIN TEMP:  49; 6HR MAX TEMP:  62;

MASON          CLOUDY    52  41  67 NW17      30.08R
MONROE         PTCLDY    54  40  57 NW15G22   30.03R
6HR MIN TEMP:  54; 6HR MAX TEMP:  65;

MT. CLEMENS    MOCLDY    52  40  64 NW24G30   30.00R
6HR MIN TEMP:  52; 6HR MAX TEMP:  64; 6HR PCP: TRACE;

PONTIAC        MOCLDY    52  41  66 NW18G30   30.03R
6HR MIN TEMP:  52; 6HR MAX TEMP:  61; 6HR PCP: TRACE;

PORT HOPE        N/A     51  43  74 NW20G32   29.98R
6HR MIN TEMP:  50; 6HR MAX TEMP:  64; 6HR PCP:  0.02;

PORT HURON     CLOUDY    52  39  62 NW13G24   30.00R
TRI CITIES     MOCLDY    49  42  77 NW12      30.08R
6HR MIN TEMP:  49; 6HR MAX TEMP:  63; 6HR PCP:  0.05;

MIDLAND        FAIR      48  40  73 NW7       30.08R
6HR MIN TEMP:  48; 6HR MAX TEMP:  61; 6HR PCP:  0.01;

TROY           CLOUDY    53  40  61 NW17G24   30.04R
SAGINAW HB     MOCLDY    48  39  71 NW9       30.06R
$$
MIZ043>046-050>051-056>058-064>065-071>073-077>080-160100-
SOUTHWEST LOWER MICHIGAN

CITY           SKY/WX    TMP DP  RH WIND       PRES   REMARKS
BATTLE CREEK   CLOUDY    51  44  77 NW9       30.10R
6HR MIN TEMP:  51; 6HR MAX TEMP:  57; 6HR PCP:  0.01;

BENTON HARBOR  CLOUDY    54  41  61 NW9G17    30.13R
6HR MIN TEMP:  53; 6HR MAX TEMP:  55; 6HR PCP:  0.02;

BIG RAPIDS     MOCLDY    46  41  84 NW5       30.11R
6HR MIN TEMP:  46; 6HR MAX TEMP:  52;

COLDWATER      MOCLDY    49  46  87 NW6       30.10R
6HR MIN TEMP:  49; 6HR MAX TEMP:  57;

FREMONT        CLOUDY    47  46  93 NW7       30.12R
HOLLAND        LGT RAIN  50  44  80 N6        30.14R
6HR MIN TEMP:  49; 6HR MAX TEMP:  53; 6HR PCP:  0.02;

GRAND RAPIDS   PTCLDY    50  43  77 N7        30.12R
6HR MIN TEMP:  50; 6HR MAX TEMP:  56; 6HR PCP: TRACE;

IONIA          FAIR      49  40  71 NW8       30.10R
6HR MIN TEMP:  49; 6HR MAX TEMP:  57;

LUDINGTON      RAIN      47  43  86 N14       30.12R
6HR MIN TEMP:  47; 6HR MAX TEMP:  52; 6HR PCP:  0.01;

MARSHALL       CLOUDY    50  41  71 CALM      30.09R
6HR MIN TEMP:  50; 6HR MAX TEMP:  56;

MOUNT PLEASANT CLOUDY    50  40  68 N7        30.09R
6HR MIN TEMP:  50; 6HR MAX TEMP:  57;

MUSKEGON       LGT RAIN  50  45  83 N7        30.13R
6HR MIN TEMP:  49; 6HR MAX TEMP:  54; 6HR PCP:  0.02;

SOUTH HAVEN    LGT RAIN  51  48  92 N6        30.14R
$$
MIZ016>042-160100-
NORTHERN LOWER MICHIGAN

CITY           SKY/WX    TMP DP  RH WIND       PRES   REMARKS
ALPENA         CLOUDY    46  42  86 NW8       30.04R
6HR MIN TEMP:  45; 6HR MAX TEMP:  48; 6HR PCP:  0.01;

BEAVER ISLAND  MOCLDY    45  32  59 NW14G23   30.11R
6HR MIN TEMP:  45; 6HR MAX TEMP:  50;

BELLAIRE       MOCLDY    46  37  70 NW3       30.10R
6HR MIN TEMP:  45; 6HR MAX TEMP:  50;

CADILLAC       PTCLDY    45  40  83 NW7       30.09R
CHARLEVOIX     MOCLDY    47  35  62 NW15G24   30.13R
FRANKFORT      PTCLDY    50  40  68 N5        30.11R
GAYLORD        CLOUDY    42  36  79 NW3       30.06R
6HR MIN TEMP:  42; 6HR MAX TEMP:  45; 6HR PCP:  0.02;

GRAYLING       LGT RAIN  43  39  86 CALM      30.08R
6HR MIN TEMP:  42; 6HR MAX TEMP:  47;

HARBOR SPRINGS MOCLDY    45  34  64 NW9G21    30.08R
HOUGHTON LAKE  PTCLDY    43  39  86 W5        30.07R
6HR MIN TEMP:  43; 6HR MAX TEMP:  50; 6HR PCP: TRACE;

MANISTEE       CLOUDY    51  39  63 N12G17    30.11R
OSCODA         CLOUDY    47  41  78 NW9       30.02R
6HR MIN TEMP:  47; 6HR MAX TEMP:  55;

PELLSTON       MOCLDY    45  34  65 NW16G24   30.08R
6HR MIN TEMP:  44; 6HR MAX TEMP:  48; 6HR PCP:  0.02;

ROGERS CITY    MOCLDY    46  37  69 NW13G28   30.04R
TRAVERSE CITY  MOCLDY    50  37  61 NW12G21   30.10R
6HR MIN TEMP:  50; 6HR MAX TEMP:  53; 6HR PCP: TRACE;

$$
MIZ007>008-015-160100-
EASTERN UPPER MICHIGAN

CITY           SKY/WX    TMP DP  RH WIND       PRES   REMARKS
KINROSS        CLOUDY    42  34  73 NW12      30.05R
6HR MIN TEMP:  42; 6HR MAX TEMP:  45;

MACKINAC ISLAN MOCLDY    44  36  73 NW13G21   30.06R
6HR MIN TEMP:  44; 6HR MAX TEMP:  47;

NEWBERRY       PTCLDY    40  34  80 NW7       30.07R WCI  35
6HR MIN TEMP:  40; 6HR MAX TEMP:  46; 6HR PCP:  0.01;

S. S. MARIE    LGT RAIN  41  35  79 N12G20    30.04R
6HR MIN TEMP:  41; 6HR MAX TEMP:  46; 6HR PCP:  0.02;

MUNISING         N/A     47  39  74 N16       30.10R
6HR MIN TEMP:  47; 6HR MAX TEMP:  50;

$$
MIZ004>006-011>014-085-160100-
CENTRAL UPPER MICHIGAN

CITY           SKY/WX    TMP DP  RH WIND       PRES   REMARKS
MANISTIQUE     CLEAR     39  32  75 NW7       30.11R WCI  34
6HR MIN TEMP:  39; 6HR MAX TEMP:  48; 6HR PCP:  0.01;

MENOMINEE      PTCLDY    45  41  86 CALM      30.13R
6HR MIN TEMP:  45; 6HR MAX TEMP:  52; 6HR PCP:  0.01;

SAWYER-GWINN   CLEAR     37  32  81 N3        30.11R
$$
MIZ001>003-009>011-084-160100-
WESTERN UPPER MICHIGAN

CITY           SKY/WX    TMP DP  RH WIND       PRES   REMARKS
IRON MOUNTAIN  MOCLDY    42  32  67 N5        30.11R
6HR MIN TEMP:  42; 6HR MAX TEMP:  52; 6HR PCP: TRACE;

HOUGHTON       MOCLDY    41  32  70 W3        30.09R
6HR MIN TEMP:  41; 6HR MAX TEMP:  49;

COPPER HARBOR    N/A     41  34  76 CALM      30.09S
6HR MIN TEMP:  41; 6HR MAX TEMP:  47;

IRONWOOD       PTCLDY    42  35  76 CALM      30.12R
6HR MIN TEMP:  41; 6HR MAX TEMP:  49;

$$

ABBREVIATIONS USED IN REMARKS
   TC - TEMPERATURE IN CELSIUS
  WCI - WIND CHILL INDEX
   HX - HEAT INDEX
  VSB - VISIBILITY





USA.gov is the U.S. government's official web portal to all federal, state and local government web resources and services.